sat.trackr.live / text

‹ back to catalog

STARLINK-35102

NORAD 65839 · 2025-221S

PAYLOAD ACTIVE UNKNOWN

§ Identity

Operator
Country
US
Launch date
2025-09-29
Launch site
AFWTR
Launch vehicle
Mass (kg)
RCS (m²)

Purposes: comms

External: N2YO · Heavens-Above · Gunter

§ Orbital elements

Epoch: 2026-05-25T02:23:32.274240Z

Period
93.89 min
Inclination
53.1609°
Eccentricity
0.0002302
Mean motion
15.33692432 rev/d
Perigee alt
463.2 km
Apogee alt
466.4 km
Semi-major
6,842.9 km
B*
2.1640e-3
RAAN
93.3172°
Arg perigee
86.1930°
Mean anomaly
273.9336°
Rev number
3,643

§ Raw data

STARLINK-351021 65839U 25221S   26145.09967910  .00071810  00000+0  21640-2 0  99932 65839  53.1609  93.3172 0002302  86.1930 273.9336 15.33692432 36433

JSON: /api/v1/satellites/65839 · /tle

For live sub-satellite position, see the globe view (requires WebGL).

§ Visibility from observer

Set your observer location to see the next 7 days of passes ≥ 10°. The values pass through the URL so the page stays shareable.

No JS? Fill the form by hand. The geolocation button needs JavaScript.